Flight Track Log - Related Links

Times and Time Zones

All times are in EDT time to prevent confusion due to time zone crossing. See the N682RW flight status page for this flight to view local times or setup timezone preferences in your user account.

Time Position Orientation Groundspeed Altitude Reporting Facility
EDT Latitude Longitude Course Direction KTS MPH feet Rate Location/Type
Sun 07:22:11 PM 41.7667 -87.7667 143° Southeast 173 199 1,600  Level Chicago TRACON
Sun 07:23:17 PM 41.7167 -87.7167 143° Southeast 253 291 3,000 923 Climbing Chicago TRACON
Sun 07:24:08 PM 41.6683 -87.6589 138° Southeast 260 299 3,400 1,752 Climbing Chicago Center
Sun 07:25:10 PM 41.6828 -87.5600 79° East 284 327 6,300 2,878 Climbing Chicago Center
Sun 07:26:11 PM 41.7164 -87.4644 65° Northeast 288 331 9,300 2,607 Climbing Chicago Center
Sun 07:27:12 PM 41.7261 -87.3464 84° East 297 342 11,600 2,262 Climbing Chicago Center
Sun 07:28:13 PM 41.7508 -87.2306 74° East 323 372 13,900 2,244 Climbing Chicago Center
Sun 07:29:15 PM 41.7997 -87.1275 58° Northeast 329 379 16,200 1,756 Climbing Chicago Center
Sun 07:30:16 PM 41.8517 -87.0200 57° Northeast 347 399 17,500 1,033 Climbing Chicago Center
Sun 07:31:17 PM 41.9064 -86.8989 59° Northeast 379 436 18,300 1,122 Climbing Chicago Center
Sun 07:32:19 PM 41.9600 -86.7592 63° Northeast 419 482 19,800 1,610 Climbing Chicago Center
Sun 07:33:20 PM 41.9597 -86.5808 90° East 428 493 21,600 1,623 Climbing Chicago Center
Sun 07:34:21 PM 41.9642 -86.4153 88° East 439 505 23,100 1,415 Climbing Chicago Center
Sun 07:35:23 PM 41.9711 -86.2456 87° East 451 519 24,500 1,415 Climbing Chicago Center
Sun 07:36:24 PM 41.9781 -86.0736 87° East 456 525 26,000 1,415 Climbing Chicago Center
Sun 07:37:26 PM 41.9842 -85.8981 87° East 464 534 27,400 1,268 Climbing Chicago Center
Sun 07:38:27 PM 41.9917 -85.7214 87° East 469 540 28,600 1,082 Climbing Chicago Center
Sun 07:39:28 PM 41.9978 -85.5422 87° East 473 544 29,600 1,220 Climbing Chicago Center
Sun 07:40:30 PM 42.0039 -85.3478 88° East 476 548 31,100 1,122 Climbing Chicago Center
Sun 07:41:31 PM 42.0097 -85.1672 87° East 482 555 31,900 787 Climbing Chicago Center
Sun 07:42:32 PM 42.0156 -84.9886 87° East 485 558 32,700 537 Climbing Chicago Center
Sun 07:43:34 PM 42.0208 -84.8075 88° East 483 556 33,000 146 Climbing Chicago Center
Sun 07:44:35 PM 42.0253 -84.6214 88° East 496 571 33,000  Level Chicago Center
Sun 07:45:24 PM 42.0292 -84.4417 88° East 499 574 33,000  Level Cleveland Center
Sun 07:46:26 PM 42.0331 -84.2544 88° East 500 575 33,000 -390 Level Cleveland Center
Sun 07:47:27 PM 42.0369 -84.0692 88° East 500 575 32,200 -1,475 Descending Cleveland Center
Sun 07:48:28 PM 42.0408 -83.8861 88° East 498 573 30,000 -2,537 Descending Cleveland Center
Sun 07:49:30 PM 42.0439 -83.7094 89° East 485 558 27,000 -2,341 Descending Cleveland Center
Sun 07:50:31 PM 42.0464 -83.5364 89° East 471 542 25,200 -1,475 Descending Cleveland Center
Sun 07:51:32 PM 42.0383 -83.3644 94° East 465 535 24,000 -590 Descending Cleveland Center
Sun 07:52:33 PM 42.0206 -83.1700 97° East 457 526 24,000 -49 Level Cleveland Center
Sun 07:53:35 PM 42.0042 -83.0033 97° East 457 526 23,900 -878 Descending Cleveland Center
Sun 07:54:36 PM 41.9881 -82.8367 97° East 455 524 22,200 -1,770 Descending Cleveland Center
Sun 07:55:37 PM 41.9714 -82.6769 98° East 440 506 20,300 -1,984 Descending Cleveland Center
Sun 07:56:40 PM 41.9539 -82.4972 97° East 419 482 18,100 -2,089 Descending Cleveland Center
Sun 07:57:29 PM 41.9417 -82.3825 98° East 406 467 16,400 -2,000 Descending Cleveland Center
Sun 07:57:40 PM 41.9408 -82.3711 96° East 410 472 16,100 -1,778 Descending Cleveland Center
Sun 07:58:23 PM 41.9272 -82.2506 99° East 391 450 14,800 -1,672 Descending Cleveland Center
Sun 07:58:41 PM 41.9250 -82.2275 97° East 392 451 14,400 -1,770 Descending Cleveland Center
Sun 07:59:24 PM 41.9128 -82.1131 98° East 368 423 13,000 -1,672 Descending Cleveland Center
Sun 07:59:42 PM 41.9103 -82.0847 97° East 369 425 12,700 -1,672 Descending Cleveland Center
Sun 08:00:25 PM 41.8997 -81.9817 98° East 354 407 11,300 -1,645 Descending Cleveland Center
Sun 08:00:44 PM 41.8961 -81.9544 100° East 354 407 11,000 -1,100 Descending Cleveland Center
Sun 08:01:25 PM 41.8861 -81.8583 98° East 336 387 10,200 -984 Descending Cleveland Center
Sun 08:01:45 PM 41.8833 -81.8317 98° East 336 387 10,000 -1,377 Descending Cleveland Center
Sun 08:02:26 PM 41.8733 -81.7439 99° East 300 345 8,800 -1,574 Descending Cleveland Center
Sun 08:02:46 PM 41.8697 -81.7197 101° East 314 361 8,400 -1,400 Descending Cleveland Center
Sun 08:03:26 PM 41.8122 -81.6778 151° Southeast 303 349 7,400 -1,258 Descending Cleveland Center
Sun 08:03:48 PM 41.7789 -81.6647 164° South 301 346 7,100 -393 Descending Cleveland Center
Sun 08:04:27 PM 41.7289 -81.6478 166° South 285 328 7,000 -197 Descending Cleveland Center
Sun 08:04:49 PM 41.7039 -81.6381 164° South 285 328 6,900 -1,770 Descending Cleveland Center
Sun 08:05:28 PM 41.6578 -81.6222 166° South 258 297 5,200 -2,557 Descending Cleveland Center
Sun 08:05:50 PM 41.6333 -81.6136 165° South 268 308 4,300 -2,500 Descending Cleveland Center
Sun 08:06:28 PM 41.5892 -81.5917 160° South 256 295 2,700 -1,645 Descending Cleveland Center
Sun 08:06:52 PM 41.5706 -81.5897 176° South 245 282 2,600 -885 Descending Cleveland Center
Sun 08:07:29 PM 41.5486 -81.6217 227° Southwest 166 191 1,800 -1,279 Descending Cleveland Center
Sun 08:07:53 PM 41.5394 -81.6361 230° Southwest 193 222 1,300 -1,000 Descending Cleveland Center
Sun 08:08:29 PM 41.5258 -81.6653 238° Southwest 133 153 800 -484 Descending Cleveland Center
Sun 08:08:55 PM 41.5119 -81.6908 234° Southwest 173 199 800  Level Cleveland Center
Sun 08:10:00 PM 41.5167 -81.6667 37° Northeast  Level FlightAware

Login

Don't have an account? Register now (free) for customized features, flight alerts, and more!